Date,TemperatureHighF,TemperatureAvgF,TemperatureLowF,DewpointHighF,DewpointAvgF,DewpointLowF,HumidityHigh,HumidityAvg,HumidityLow,PressureMaxIn,PressureMinIn,WindSpeedMaxMPH,WindSpeedAvgMPH,GustSpeedMaxMPH,PrecipitationSumIn
2014-1-1,26.5,20.6,11.9,19.4,15.7,9.3,92,81,65,30.02,29.76,13,2,13,0.00
2014-1-2,12.6,7.5,4.3,10.2,4.3,0.6,90,87,83,30.62,29.98,6,0,6,0.00
2014-1-3,21.3,15.7,8.1,17.8,12.4,4.8,89,87,83,30.83,30.62,5,0,5,0.00
2014-1-4,24.9,18.4,13.0,20.6,15.2,10.4,92,87,72,30.85,30.24,17,2,17,0.00
2014-1-5,23.5,20.1,18.5,21.0,16.8,14.1,92,87,79,30.24,30.08,12,2,12,0.00
2014-1-6,25.5,20.8,17.2,22.9,18.2,15.0,93,89,81,30.25,30.14,9,1,9,0.00
2014-1-7,21.8,19.5,17.6,19.1,17.5,15.5,93,92,87,30.17,29.94,6,0,6,0.00
2014-1-8,19.7,16.6,12.6,17.8,14.1,9.2,92,90,85,29.94,29.80,7,1,8,0.00
2014-1-9,12.8,6.6,-0.2,9.7,3.2,-3.6,88,85,83,30.03,29.83,4,0,4,0.00
2014-1-10,2.6,-2.0,-6.5,-1.0,-5.8,-11.6,92,83,77,30.12,30.03,6,0,6,0.00
2014-1-11,-2.4,-11.9,-19.0,-8.5,-17.6,-23.7,92,75,63,30.07,29.85,16,2,16,0.00
2014-1-12,-11.6,-15.8,-20.2,-15.3,-20.3,-25.1,92,79,77,30.03,29.80,6,0,7,0.00
2014-1-13,13.6,-3.7,-21.0,8.1,-7.9,-25.9,94,82,77,30.16,29.85,6,0,6,0.00
2014-1-14,15.2,4.0,-11.8,10.0,0.0,-16.2,92,83,79,30.06,29.46,9,1,9,0.00
2014-1-15,16.0,3.5,-8.9,12.8,0.0,-13.0,97,85,81,30.36,30.06,6,0,6,0.00
2014-1-16,22.4,14.4,7.0,19.5,11.4,4.1,92,87,81,30.31,29.93,6,1,7,0.00
2014-1-17,35.7,27.1,15.4,27.9,22.2,13.0,94,82,68,30.29,29.53,19,3,19,0.00
2014-1-18,22.4,13.3,5.4,18.5,9.9,2.4,88,86,83,30.24,29.47,11,1,11,0.00
2014-1-19,28.0,18.7,6.3,19.5,14.3,3.3,100,83,66,30.50,30.23,11,2,13,0.00
2014-1-20,39.6,33.4,26.8,25.0,21.7,17.3,72,62,53,30.39,30.18,15,4,18,0.01
2014-1-21,36.1,33.2,29.9,26.8,22.9,19.6,76,66,58,30.18,29.87,16,2,16,0.00
2014-1-22,40.6,32.5,26.6,30.2,27.2,23.7,94,81,64,30.27,29.98,24,3,24,0.00
2014-1-23,43.4,38.7,35.2,36.0,32.9,29.6,94,80,64,30.23,29.93,11,2,11,1.07
2014-1-24,45.4,39.0,32.0,39.4,33.7,29.3,94,82,60,30.60,29.97,21,4,21,0.53
2014-1-25,48.7,42.4,33.5,35.6,32.1,28.7,90,67,57,30.62,30.39,9,3,10,0.00
2014-1-26,49.7,44.2,36.4,34.8,31.2,28.1,75,61,47,30.42,30.33,11,2,11,0.00
2014-1-27,41.9,36.0,30.2,29.1,27.4,25.4,84,71,59,30.41,30.24,10,1,10,0.00
2014-1-28,37.5,27.2,22.3,26.5,21.4,18.0,87,79,63,30.49,30.28,7,1,7,0.00
2014-1-29,32.3,23.8,18.0,25.0,20.0,15.8,92,85,72,30.62,30.49,5,0,7,0.00
2014-1-30,21.5,16.1,11.4,19.2,13.9,8.8,92,91,89,30.76,30.62,3,0,3,0.00
2014-1-31,16.5,12.4,8.9,14.2,9.8,5.8,91,89,87,30.90,30.75,3,0,3,0.00
2014-2-1,19.0,15.7,12.1,16.8,13.3,9.6,91,90,88,31.09,30.90,4,0,4,0.00
2014-2-2,24.4,20.1,15.2,21.8,15.9,12.6,92,84,64,31.13,31.09,15,2,15,0.00
2014-2-3,27.4,22.3,16.9,14.1,11.3,6.4,73,62,49,31.11,31.03,17,4,19,0.00
2014-2-4,22.5,17.7,12.8,10.4,5.1,2.2,63,57,51,31.24,31.11,6,1,6,0.00
2014-2-5,14.1,10.7,8.7,8.6,4.4,0.6,89,76,60,31.27,31.15,6,0,6,0.00
2014-2-6,17.2,11.5,8.1,14.8,8.7,4.8,91,88,86,31.15,30.61,19,2,19,0.00
2014-2-7,13.0,8.2,5.0,6.8,2.1,-2.4,87,76,67,31.03,30.75,21,6,22,0.00
2014-2-8,9.1,4.5,-0.8,-2.0,-4.8,-10.4,72,65,57,31.12,31.02,18,4,21,0.00
2014-2-9,-0.5,-5.6,-8.9,-9.6,-13.9,-16.6,76,66,56,31.09,30.96,14,2,14,0.00
2014-2-10,1.1,-5.2,-9.6,-9.3,-14.1,-17.7,78,65,54,31.00,30.66,11,1,11,0.00
2014-2-11,-5.6,-11.6,-18.2,-12.3,-16.9,-23.3,80,76,69,30.66,30.34,9,1,9,0.00
2014-2-12,-11.7,-15.9,-19.2,-17.5,-21.2,-24.6,79,76,70,30.34,29.93,9,0,9,0.00
2014-2-13,-1.6,-8.0,-16.0,-8.7,-15.5,-22.6,74,69,60,29.93,29.80,13,1,13,0.00
2014-2-14,0.8,-5.0,-10.4,-10.1,-13.8,-17.6,73,65,54,29.90,29.73,19,2,20,0.00
2014-2-15,7.8,2.1,-2.6,0.8,-5.6,-11.8,80,69,62,29.75,29.26,23,5,23,0.00
2014-2-16,6.6,1.1,-4.1,1.5,-3.7,-9.0,84,80,72,29.75,29.27,6,1,8,0.00
2014-2-17,9.3,1.3,-6.1,0.8,-5.5,-11.4,82,72,60,29.92,29.75,13,2,14,0.00
2014-2-18,6.9,0.5,-5.7,-2.5,-6.9,-13.1,79,70,61,30.07,29.92,14,2,18,0.00
2014-2-19,3.1,-4.8,-12.0,-7.3,-12.1,-16.8,79,70,58,30.44,30.06,7,1,7,0.00
2014-2-20,-8.3,-11.8,-15.7,-11.7,-17.1,-20.5,89,77,72,30.81,30.44,7,1,7,0.00
2014-2-21,5.7,-2.0,-9.4,-2.3,-8.4,-14.2,81,74,61,30.95,30.81,2,0,5,0.00
2014-2-22,22.6,10.4,-1.5,4.1,-1.0,-6.1,81,61,40,30.96,30.74,13,2,14,0.00
2014-2-23,18.2,13.9,7.5,0.5,-3.0,-6.0,55,46,40,30.74,30.62,8,1,8,0.00
2014-2-24,25.1,15.1,5.9,3.7,-1.5,-6.0,60,47,37,30.63,30.54,4,0,6,0.01
2014-2-25,23.4,16.7,5.4,4.2,-0.1,-4.1,66,47,36,30.74,30.56,7,1,7,0.00
2014-2-26,31.2,23.4,13.0,10.0,2.8,-1.9,55,41,32,30.58,30.35,9,1,9,0.01
2014-2-27,38.0,28.3,20.8,14.1,8.2,2.5,54,42,30,30.36,30.30,6,0,6,0.07
2014-2-28,29.9,24.0,18.1,12.3,7.5,4.5,61,49,41,30.63,30.35,9,1,9,0.00
2014-3-1,31.5,22.4,14.6,13.9,8.8,5.2,67,56,46,30.63,30.55,6,1,6,0.01
2014-3-2,28.4,19.9,13.3,14.9,9.6,6.3,74,64,52,30.56,30.49,5,1,5,0.00
2014-3-3,24.7,16.4,9.0,12.5,7.9,1.1,86,69,56,30.50,30.34,6,0,6,0.00
2014-3-4,18.2,13.2,9.0,9.9,4.5,-1.3,83,68,51,30.38,30.34,6,1,8,0.00
2014-3-5,13.1,9.1,3.5,7.7,4.4,-1.5,85,81,76,30.40,30.34,15,2,15,0.00
2014-3-6,18.0,10.1,2.0,6.2,0.5,-5.3,83,65,50,30.47,30.40,14,4,16,0.00
2014-3-7,18.4,9.5,0.9,-0.4,-5.8,-10.2,61,49,38,30.45,30.14,13,1,13,0.00
2014-3-8,14.9,4.8,-2.3,-2.4,-8.8,-12.8,68,53,42,30.14,29.94,21,4,21,0.00
2014-3-9,7.3,-2.0,-8.5,-9.3,-14.7,-19.8,63,54,40,30.14,29.95,17,3,19,0.00
2014-3-10,18.5,2.7,-10.2,7.5,-9.2,-20.6,63,57,47,30.15,29.62,9,1,9,0.00
2014-3-11,40.9,31.4,17.8,24.3,17.4,6.2,63,56,49,29.63,29.48,17,4,17,0.09
2014-3-12,36.3,22.1,7.2,21.7,11.4,1.3,78,63,53,29.94,29.52,9,2,14,0.00
2014-3-13,40.9,33.9,25.7,19.3,15.1,12.1,65,46,39,29.94,29.68,20,6,20,0.03
2014-3-14,40.2,37.4,35.0,22.3,17.8,13.7,55,45,38,29.68,29.54,22,6,22,0.01
2014-3-15,35.6,17.5,7.8,20.2,8.6,2.1,79,68,53,30.16,29.64,20,2,25,0.00
2014-3-16,23.0,12.1,-0.1,9.2,3.1,-4.5,85,68,49,30.13,30.08,11,2,12,0.00
2014-3-17,32.7,25.1,17.6,12.1,6.1,1.3,53,44,36,30.15,30.09,9,2,10,0.00
2014-3-18,28.5,22.5,17.3,14.3,9.6,5.7,74,57,47,30.55,30.14,9,1,9,0.00
2014-3-19,23.2,17.2,12.6,16.3,11.7,6.7,87,79,66,31.01,30.55,18,3,18,0.00
2014-3-20,24.1,16.5,10.5,10.5,6.5,2.4,81,64,53,31.03,31.00,17,5,17,0.00
2014-3-21,30.1,20.6,9.9,11.9,5.3,1.0,72,52,41,31.04,31.00,15,4,16,0.00
2014-3-22,33.4,24.9,14.8,5.4,-0.6,-7.3,46,33,25,31.10,31.03,8,3,12,0.00
2014-3-23,40.5,30.9,20.6,11.5,3.3,-6.0,39,30,25,31.11,30.95,10,2,10,0.01
2014-3-24,39.1,32.4,26.2,9.0,6.4,3.3,41,33,24,30.97,30.69,19,6,19,0.00
2014-3-25,40.4,32.8,27.3,11.6,7.1,3.9,40,34,26,30.69,30.35,28,9,28,0.00
2014-3-26,38.5,31.1,25.5,10.3,6.0,2.8,40,34,27,30.35,30.26,23,6,23,0.00
2014-3-27,37.4,29.4,19.5,12.6,6.1,0.5,54,37,28,30.37,30.30,11,2,12,0.00
2014-3-28,38.4,29.8,21.1,11.8,6.1,2.3,47,36,26,30.38,30.21,11,2,12,0.00
2014-3-29,35.7,28.3,17.5,11.0,6.5,2.1,58,40,31,30.34,30.21,15,3,15,0.00
2014-3-30,31.5,23.2,12.5,14.9,8.4,4.0,70,53,44,30.61,30.34,13,2,13,0.00
2014-3-31,37.4,26.9,19.3,18.3,11.3,6.5,67,52,39,30.67,30.59,14,2,14,0.00
2014-4-1,35.9,27.1,18.1,17.2,11.3,7.0,63,51,40,30.59,30.39,14,3,14,0.00
2014-4-2,35.4,25.3,14.2,16.8,10.0,4.5,67,52,41,30.39,30.27,11,1,11,0.00
2014-4-3,36.4,24.3,16.1,17.0,9.5,5.8,65,53,39,30.27,30.10,8,1,9,0.00
2014-4-4,38.9,31.1,19.5,16.7,11.6,4.0,53,44,36,30.04,29.88,11,2,11,0.00
2014-4-5,40.2,30.4,21.6,23.1,15.8,9.6,66,54,42,29.89,29.85,10,1,10,0.00
2014-4-6,30.1,27.7,24.1,26.7,23.5,16.9,91,84,60,30.02,29.88,8,1,8,0.05
2014-4-7,28.4,23.5,14.8,24.2,19.8,11.0,91,86,78,30.01,29.81,21,3,21,0.00
2014-4-8,17.8,10.8,3.5,11.4,2.3,-5.5,87,69,51,30.26,29.90,14,3,15,0.00
2014-4-9,19.7,8.8,-0.8,3.9,-2.8,-7.4,78,59,40,30.58,30.26,11,2,11,0.00
2014-4-10,24.7,13.2,2.6,4.8,-1.5,-7.9,64,52,39,30.61,30.54,10,2,10,0.00
2014-4-11,30.2,20.5,7.9,9.5,4.0,-0.2,71,50,35,30.77,30.55,9,2,10,0.02
2014-4-12,38.1,26.8,22.0,11.5,4.1,0.1,41,37,31,30.71,30.55,8,1,8,0.01
2014-4-13,49.2,40.9,33.3,26.7,19.4,7.9,62,42,32,30.47,30.29,9,3,30,0.00
2014-4-14,49.6,41.1,29.9,28.2,24.5,20.6,68,52,38,30.39,30.30,12,2,12,0.00
2014-4-15,49.2,41.1,33.6,33.6,27.7,22.3,80,60,43,30.30,30.17,15,3,15,0.00
2014-4-16,50.2,40.4,31.2,32.5,29.3,26.0,87,66,45,30.21,30.04,11,2,11,0.00
2014-4-17,49.6,41.9,37.2,32.5,29.1,26.5,71,60,46,30.04,29.81,20,5,20,0.01
2014-4-18,48.2,42.0,35.6,31.6,29.2,26.1,75,61,43,30.01,29.81,13,3,14,0.01
2014-4-19,49.6,41.8,33.3,32.7,29.5,26.7,80,62,48,30.09,30.01,23,3,23,0.00
2014-4-20,51.4,41.9,32.1,32.3,27.9,24.1,73,58,45,30.31,30.08,19,4,20,0.00
2014-4-21,54.1,43.9,35.5,32.5,28.2,25.5,68,54,41,30.40,30.31,15,3,15,0.00
2014-4-22,52.9,41.9,33.3,32.7,27.0,23.5,71,56,41,30.38,30.24,21,3,21,0.00
2014-4-23,50.6,41.0,29.3,28.8,24.3,19.8,76,53,34,30.24,30.09,13,2,14,0.00
2014-4-24,54.6,44.6,36.7,34.3,28.9,25.7,67,54,42,30.10,29.98,16,3,16,0.00
2014-4-25,51.2,41.3,32.4,34.1,29.2,25.1,85,63,40,29.99,29.91,19,2,19,0.00
2014-4-26,55.0,45.8,36.3,29.7,24.8,18.7,61,45,24,29.95,29.83,17,4,19,0.00
2014-4-27,55.9,47.1,37.5,29.2,25.5,22.1,63,43,31,29.96,29.85,23,5,23,0.00
2014-4-28,58.2,44.6,32.5,32.7,26.9,21.8,72,51,33,30.33,29.96,15,2,15,0.00
2014-4-29,57.1,44.2,35.3,41.4,30.5,19.4,84,59,43,30.69,30.33,23,3,26,0.00
2014-4-30,57.7,44.7,34.1,37.8,34.0,31.5,93,69,40,30.95,30.69,12,1,14,0.00
2014-5-1,67.2,53.4,41.1,39.6,34.4,30.6,67,50,35,31.04,30.91,13,2,14,0.00
2014-5-2,67.7,58.1,45.0,37.7,34.0,29.2,54,41,29,30.91,30.58,19,4,19,0.00
2014-5-3,70.3,61.4,48.7,39.4,36.0,25.5,51,39,31,30.56,30.25,15,4,19,0.00
2014-5-4,66.3,53.7,47.2,39.9,37.3,35.2,68,54,36,30.30,30.25,18,2,18,0.00
2014-5-5,42.1,38.3,31.8,36.7,31.0,27.8,91,75,62,30.40,30.36,14,2,14,0.01
2014-5-6,54.3,43.3,31.3,39.8,34.2,27.3,87,71,53,30.36,30.07,13,2,14,0.00
2014-5-7,48.3,42.7,34.4,42.7,35.2,27.0,93,76,55,30.28,30.10,18,2,18,0.10
2014-5-8,54.9,43.9,34.4,32.7,28.8,23.4,76,56,42,30.41,30.28,13,1,14,0.00
2014-5-9,58.4,45.5,34.4,32.5,26.3,21.2,64,48,34,30.66,30.41,15,1,15,0.00
2014-5-10,61.1,49.6,39.6,34.9,29.8,23.5,58,47,35,30.75,30.66,11,1,11,0.00
2014-5-11,64.8,55.7,44.1,32.7,30.1,27.2,53,38,28,30.78,30.65,16,2,16,0.00
2014-5-12,68.8,58.6,46.9,34.8,30.5,27.0,53,35,24,30.70,30.57,11,1,11,0.00
2014-5-13,54.4,49.0,36.2,36.9,29.3,23.2,68,47,37,30.88,30.55,26,4,27,0.00
2014-5-14,57.4,46.5,33.7,28.6,24.9,20.7,67,45,28,30.98,30.86,11,2,12,0.00
2014-5-15,63.9,53.1,43.2,32.4,26.2,17.7,45,35,27,30.86,30.65,12,1,13,0.00
2014-5-16,65.0,56.0,46.5,39.7,35.7,29.4,64,47,39,30.65,30.52,23,3,23,0.00
2014-5-17,63.3,50.8,38.7,46.7,39.0,31.5,87,65,47,30.53,30.25,24,3,24,0.01
2014-5-18,48.9,41.5,32.5,31.3,28.8,25.7,82,61,45,30.43,30.33,26,3,26,0.00
2014-5-19,49.2,40.5,33.9,35.9,27.2,24.2,81,60,42,30.51,30.43,20,3,20,0.02
2014-5-20,54.9,45.1,32.4,29.5,26.1,22.1,75,49,31,30.55,30.39,16,2,16,0.00
2014-5-21,57.1,49.6,41.0,28.8,24.7,21.6,50,38,30,30.39,30.33,24,4,25,0.00
2014-5-22,54.0,47.8,42.2,30.0,25.8,21.1,50,42,36,30.34,30.31,17,3,17,0.00
2014-5-23,57.4,50.3,38.5,31.5,28.2,24.9,61,43,32,30.32,30.17,18,2,18,0.00
2014-5-24,60.7,52.0,38.8,32.9,29.6,24.4,59,43,31,30.33,30.20,25,2,25,0.00
2014-5-25,53.0,47.5,40.9,39.4,36.0,29.3,90,65,44,30.34,30.19,17,4,23,0.02
2014-5-26,63.7,53.1,40.3,40.5,36.6,32.2,82,56,37,30.41,30.26,17,2,18,0.00
2014-5-27,59.9,54.5,48.3,42.1,37.3,31.5,66,52,44,30.39,30.27,19,2,19,0.00
2014-5-28,64.2,55.5,46.3,39.8,37.5,35.5,73,52,38,30.42,30.32,17,2,17,0.00
2014-5-29,67.7,58.2,46.1,42.5,38.7,35.9,70,50,34,30.37,30.11,16,2,16,0.00
2014-5-30,66.9,59.1,50.2,43.3,40.0,38.0,67,50,37,30.15,29.90,20,3,20,0.00
2014-5-31,64.2,52.8,40.9,49.0,38.4,32.9,83,59,38,30.37,29.88,26,4,33,0.00
2014-6-1,55.5,47.5,40.2,36.1,33.5,30.8,81,60,42,30.53,30.37,22,3,22,0.00
2014-6-2,48.3,44.6,41.3,45.7,39.5,31.9,95,83,57,30.69,30.53,17,2,18,0.11
2014-6-3,60.1,50.0,43.0,46.5,42.8,37.1,96,79,43,30.73,30.62,13,1,13,0.01
2014-6-4,66.3,57.1,45.9,44.4,40.6,35.4,82,56,35,30.63,30.42,11,1,11,0.00
2014-6-5,56.7,53.0,48.9,50.9,44.9,35.8,94,75,46,30.43,30.36,21,2,21,0.10
2014-6-6,64.1,54.6,47.6,49.9,46.3,41.3,97,76,47,30.38,30.19,16,2,16,0.03
2014-6-7,69.3,60.6,48.2,48.6,40.4,32.7,83,51,27,30.20,29.96,15,2,15,0.00
2014-6-8,70.9,60.8,52.5,48.3,44.6,39.2,82,56,40,30.11,29.95,24,3,26,0.00
2014-6-9,63.5,55.5,48.2,47.9,45.3,41.3,92,71,46,30.28,30.11,12,2,13,0.00
2014-6-10,58.1,52.0,46.2,46.1,43.9,40.2,90,75,56,30.39,30.28,13,2,14,0.00
2014-6-11,55.7,48.6,42.7,42.1,38.4,32.6,86,69,50,30.52,30.39,19,2,19,0.00
2014-6-12,59.6,50.2,40.0,40.0,34.2,29.2,81,56,33,30.50,30.29,11,2,11,0.00
2014-6-13,64.7,58.6,49.0,46.6,39.3,29.3,68,49,38,30.20,29.98,21,3,24,0.00
2014-6-14,68.9,62.4,53.1,46.8,41.1,35.7,69,46,34,30.13,29.98,15,3,18,0.00
2014-6-15,70.5,62.7,52.0,45.0,39.5,34.1,61,43,34,30.17,30.07,15,2,15,0.00
2014-6-16,66.2,57.7,52.0,53.4,46.4,39.8,88,67,52,30.09,29.84,19,2,19,0.03
2014-6-17,65.6,57.3,49.0,47.1,43.1,37.0,86,60,41,29.84,29.71,15,2,15,0.00
2014-6-18,50.4,48.2,45.7,49.3,46.7,44.3,96,95,83,30.02,29.76,19,3,21,0.66
2014-6-19,57.6,51.4,47.5,54.0,49.6,46.4,97,93,82,30.22,30.02,16,2,18,0.57
2014-6-20,65.0,53.7,45.4,52.5,47.4,44.6,97,81,51,30.29,29.87,18,2,18,0.31
2014-6-21,62.4,57.2,51.0,53.6,49.2,42.9,95,76,56,30.14,30.05,16,2,18,0.06
2014-6-22,65.4,57.0,46.7,49.3,44.5,38.0,95,66,39,30.09,30.03,14,1,14,0.03
2014-6-23,70.3,61.0,50.5,49.9,44.5,40.2,74,56,36,30.19,30.06,22,2,22,0.03
2014-6-24,63.3,57.3,50.1,53.0,47.5,42.0,79,70,55,30.22,30.14,11,1,11,0.02
2014-6-25,56.6,53.3,51.4,53.2,51.2,48.0,97,93,77,30.14,29.88,12,1,12,0.06
2014-6-26,53.6,49.7,46.4,52.5,48.2,45.4,97,95,85,29.97,29.87,18,3,19,0.17
2014-6-27,55.8,49.5,44.7,50.0,46.7,43.1,97,90,69,30.09,29.96,16,2,17,0.06
2014-6-28,64.8,56.1,47.7,55.0,49.5,46.3,97,80,53,30.24,30.09,11,1,12,0.06
2014-6-29,73.6,65.0,52.5,54.7,48.3,42.9,82,57,35,30.29,30.20,13,2,13,0.08
2014-6-30,62.4,58.1,52.5,54.5,51.6,47.2,90,79,62,30.40,30.24,17,1,17,0.06
2014-7-1,56.1,53.4,52.4,53.2,52.3,51.5,97,96,90,30.40,30.31,15,2,15,0.02
2014-7-2,58.0,53.7,50.8,56.5,52.7,50.0,98,96,90,30.33,30.28,10,1,10,0.13
2014-7-3,65.7,59.4,51.6,57.4,52.2,47.6,93,78,55,30.31,30.27,13,0,13,0.17
2014-7-4,71.6,63.3,53.7,56.3,50.8,46.4,83,65,49,30.31,30.22,7,1,8,0.17
2014-7-5,77.9,69.8,58.6,56.1,49.2,45.1,72,49,34,30.24,30.14,13,1,16,0.10
2014-7-6,78.5,71.8,62.7,62.8,55.4,47.9,78,57,47,30.20,30.15,15,2,16,0.11
2014-7-7,66.9,59.9,53.8,59.9,55.6,51.3,96,86,73,30.33,30.18,16,1,16,0.03
2014-7-8,70.9,62.8,54.2,57.8,53.3,50.0,88,72,53,30.30,30.21,16,2,17,0.03
2014-7-9,70.6,63.7,54.4,57.5,51.9,45.3,86,67,45,30.31,30.24,12,1,14,0.02
2014-7-10,72.4,65.3,57.2,53.9,49.9,44.4,72,58,46,30.29,30.00,21,3,21,0.02
2014-7-11,66.4,62.1,59.0,57.2,53.3,48.2,87,73,56,30.05,29.90,11,1,12,0.01
2014-7-12,70.4,62.9,54.2,55.4,51.4,47.5,88,67,49,30.24,30.05,13,1,15,0.02
2014-7-13,64.1,57.7,51.4,53.6,49.8,44.6,93,75,59,30.52,30.25,21,2,24,0.01
2014-7-14,61.4,52.8,49.2,49.9,46.5,42.2,96,80,57,30.56,30.50,27,4,31,0.01
2014-7-15,52.2,50.6,48.9,51.4,49.8,47.8,97,97,96,30.56,30.48,21,4,23,0.00
2014-7-16,62.4,55.9,50.8,56.6,52.7,50.0,98,89,72,30.53,30.38,18,1,18,0.02
2014-7-17,64.3,58.1,51.0,55.4,52.3,49.6,96,82,65,30.53,30.14,13,1,15,0.01
2014-7-18,64.7,57.7,51.2,55.1,50.9,48.2,91,78,64,30.14,30.02,20,2,22,0.02
2014-7-19,57.8,51.9,46.6,51.8,47.5,43.8,100,86,61,30.07,30.02,17,2,17,0.01
2014-7-20,56.3,48.3,42.4,46.7,43.2,40.8,95,83,62,30.45,30.07,19,1,19,0.01
2014-7-21,54.2,48.9,43.7,48.9,44.5,40.0,92,85,78,30.50,30.42,7,1,8,0.00
2014-7-22,63.2,55.4,49.9,53.5,49.3,45.4,91,80,65,30.42,30.21,11,1,11,0.01
2014-7-23,58.4,54.1,51.4,53.7,51.1,49.1,96,90,81,30.22,30.13,20,1,20,0.02
2014-7-24,51.4,49.4,47.0,50.1,48.4,45.9,97,96,95,30.19,30.14,13,1,13,0.00
2014-7-25,53.2,48.1,45.0,47.5,45.6,43.4,97,91,72,30.36,30.18,14,1,14,0.01
2014-7-26,55.9,49.7,40.4,46.0,41.7,36.5,93,75,55,30.43,30.36,14,1,14,0.01
2014-7-27,61.1,53.0,42.9,49.0,44.0,38.0,86,72,50,30.47,30.43,14,1,15,0.01
2014-7-28,60.2,55.4,48.8,50.5,47.2,43.6,87,75,57,30.48,30.42,10,1,11,0.01
2014-7-29,67.2,59.9,51.0,51.5,46.7,42.6,82,63,42,30.56,30.48,17,4,17,0.01
2014-7-30,68.0,60.8,49.7,51.7,46.8,41.3,79,61,47,30.62,30.56,10,1,12,0.00
2014-7-31,69.2,59.5,50.8,56.7,49.9,45.1,97,71,57,30.60,30.48,14,1,14,0.01
2014-8-1,59.6,56.2,53.8,56.8,53.9,50.2,97,92,76,30.51,30.39,17,2,20,0.00
2014-8-2,59.0,56.4,54.6,57.6,55.4,53.8,98,96,93,30.39,30.36,15,2,15,0.00
2014-8-3,67.5,60.8,54.8,58.9,55.8,53.6,97,84,64,30.39,30.24,10,1,10,0.01
2014-8-4,72.5,61.4,54.3,59.7,55.4,52.2,96,82,53,30.26,30.08,16,1,16,0.00
2014-8-5,57.7,55.2,52.3,56.4,54.1,50.6,97,96,92,30.32,30.17,8,0,8,0.00
2014-8-6,64.3,57.6,50.8,55.7,52.3,50.0,97,83,65,30.34,30.24,11,1,11,0.01
2014-8-7,66.7,59.4,51.0,52.0,49.1,45.9,92,70,48,30.24,30.01,11,2,13,0.00
2014-8-8,69.5,62.5,54.3,48.7,45.3,41.3,69,54,40,30.06,30.00,21,5,25,0.00
2014-8-9,73.3,63.2,55.3,55.3,48.2,43.4,79,59,44,30.07,30.01,17,4,17,0.00
2014-8-10,72.0,64.3,58.4,57.4,50.1,45.6,89,61,48,30.11,30.06,22,5,22,0.00
2014-8-11,72.8,65.4,58.2,57.9,51.9,48.1,72,62,47,30.11,30.00,15,3,15,0.00
2014-8-12,62.9,57.7,53.6,57.3,52.4,48.7,96,83,64,30.03,29.95,8,2,10,0.00
2014-8-13,70.8,62.9,56.1,54.3,49.9,46.1,80,63,47,30.05,29.96,13,2,13,0.93
2014-8-14,70.0,63.2,53.5,52.5,49.8,46.5,82,63,45,30.10,29.96,16,2,16,0.00
2014-8-15,62.6,59.2,51.2,58.0,50.8,44.8,92,75,55,30.04,29.88,16,2,16,0.07
2014-8-16,65.3,56.5,47.3,49.8,46.7,43.1,95,71,49,30.12,29.97,17,3,17,0.00
2014-8-17,62.6,55.0,51.0,53.3,47.0,41.1,95,75,56,30.05,29.95,10,1,10,0.08
2014-8-18,60.5,54.2,50.1,55.8,51.5,49.1,97,91,76,30.33,30.05,16,1,17,0.03
2014-8-19,61.6,54.9,50.8,55.1,51.5,49.1,95,89,74,30.43,30.33,14,1,14,0.01
2014-8-20,62.1,54.7,48.8,55.5,50.9,47.2,96,87,72,30.57,30.42,15,1,15,0.00
2014-8-21,60.0,53.2,46.8,51.3,47.8,42.4,97,83,59,30.65,30.57,12,1,12,0.00
2014-8-22,62.5,54.1,44.0,49.1,45.0,40.7,90,72,54,30.64,30.59,12,1,12,0.00
2014-8-23,61.1,53.2,46.8,49.8,45.8,41.6,89,77,60,30.64,30.43,9,1,9,0.00
2014-8-24,67.6,58.5,49.6,49.4,45.7,42.0,77,63,45,30.43,30.01,15,3,15,0.00
2014-8-25,59.0,53.8,49.8,52.1,49.4,46.5,95,85,72,30.03,29.97,8,1,9,0.10
2014-8-26,56.4,52.4,48.5,52.2,49.7,47.4,97,91,80,30.24,30.08,8,1,11,0.09
2014-8-27,57.4,51.8,47.9,50.2,48.2,46.2,100,88,70,30.26,30.13,12,2,13,0.04
2014-8-28,57.0,52.2,46.2,50.5,46.9,43.4,93,83,69,30.14,29.95,5,0,6,0.02
2014-8-29,50.1,46.6,39.5,48.2,44.0,36.0,99,91,74,30.09,29.93,24,2,24,0.04
2014-8-30,47.1,40.5,31.5,36.5,33.4,29.7,95,77,55,30.17,30.11,7,1,7,0.00
2014-8-31,47.9,40.5,31.6,37.3,33.4,29.0,93,76,59,30.30,30.12,11,0,12,0.00
2014-9-1,44.4,39.2,33.6,43.6,36.4,30.8,100,90,76,30.31,30.05,18,2,18,0.76
2014-9-2,46.0,40.8,35.8,45.2,38.4,32.0,97,91,73,30.39,30.03,22,3,24,0.52
2014-9-3,45.4,39.0,33.2,36.6,33.2,27.6,94,80,61,30.57,30.39,20,2,23,0.00
2014-9-4,49.9,40.9,30.9,37.3,30.2,24.4,88,67,44,30.57,30.39,17,2,19,0.00
2014-9-5,42.1,40.7,39.5,24.7,24.0,23.3,54,51,49,30.43,30.41,21,8,22,0.00
2014-9-6,53.1,45.7,38.7,33.0,27.5,23.5,63,49,35,30.55,30.44,14,3,18,0.00
2014-9-7,53.2,44.6,35.1,33.8,28.4,24.2,68,53,41,30.58,30.47,14,1,14,0.00
2014-9-8,57.4,51.3,45.4,38.7,32.7,25.8,58,49,44,30.47,30.40,14,3,16,0.00
2014-9-9,60.4,54.1,46.1,43.2,39.7,36.6,72,58,47,30.45,30.34,9,2,10,0.00
2014-9-10,61.6,55.9,49.6,47.4,43.6,40.7,72,63,53,30.44,30.34,10,1,10,0.00
2014-9-11,62.5,53.9,46.9,47.1,44.0,42.6,87,70,51,30.53,30.41,6,1,8,0.00
2014-9-12,65.7,58.7,51.7,46.3,43.4,40.3,71,57,46,30.42,30.05,17,5,19,0.00
2014-9-13,69.5,63.8,59.0,52.6,47.8,45.1,62,56,48,30.06,30.00,11,2,13,0.00
2014-9-14,70.3,63.8,57.8,50.7,46.8,42.1,66,54,41,30.01,29.92,11,2,13,0.00
2014-9-15,65.1,57.3,52.2,46.9,41.4,37.4,65,55,49,30.01,29.89,18,2,19,0.00
2014-9-16,60.6,51.6,42.6,43.5,40.2,37.2,83,65,53,30.08,30.00,8,1,12,0.00
2014-9-17,60.3,52.7,44.4,38.9,36.9,34.0,72,56,43,30.00,29.65,14,3,15,0.00
2014-9-18,61.0,54.6,47.2,38.0,35.7,32.9,59,49,41,29.65,29.44,18,5,18,0.00
2014-9-19,59.3,52.9,44.3,43.6,37.2,33.3,82,56,45,29.82,29.48,16,3,18,0.00
2014-9-20,48.5,44.6,42.2,44.6,42.6,40.6,97,93,78,30.02,29.83,8,1,8,0.43
2014-9-21,44.9,38.5,30.0,44.1,36.6,27.9,97,93,85,30.10,30.02,11,1,12,0.11
2014-9-22,41.2,34.2,29.4,32.8,29.1,25.8,94,82,64,30.30,30.04,9,1,11,0.00
2014-9-23,37.9,31.4,27.7,36.9,28.1,25.0,100,88,76,30.43,30.30,15,2,15,0.10
2014-9-24,35.5,29.7,23.8,30.9,27.1,21.6,95,90,73,30.55,30.43,7,1,8,0.00
2014-9-25,41.7,34.0,25.9,31.8,25.6,21.3,94,73,44,30.61,30.50,10,2,10,0.00
2014-9-26,50.4,41.6,35.5,27.3,23.2,19.3,60,48,37,30.50,30.30,18,6,19,0.00
2014-9-27,46.8,37.5,31.2,29.4,23.8,19.9,68,58,45,30.30,30.23,8,1,9,0.00
2014-9-28,43.1,34.5,26.7,29.9,25.7,22.2,86,70,57,30.23,30.20,9,1,10,0.00
2014-9-29,44.0,34.4,30.2,33.9,29.0,25.9,92,81,62,30.45,30.22,21,3,27,0.00
2014-9-30,33.1,31.5,29.6,31.6,29.2,26.7,94,91,82,30.74,30.45,21,4,23,0.15
2014-10-1,33.2,30.9,28.3,31.7,28.4,25.2,94,90,87,30.78,30.66,6,1,9,0.02
2014-10-2,40.4,32.9,30.5,34.8,29.7,28.5,95,89,70,30.66,30.13,8,1,11,0.05
2014-10-3,38.9,34.6,32.3,29.5,27.0,23.8,86,74,63,30.13,29.86,22,6,23,0.00
2014-10-4,32.9,29.4,24.3,30.7,27.0,22.3,95,91,79,30.13,29.85,19,2,19,0.03
2014-10-5,28.0,25.7,23.2,26.0,23.6,21.0,100,92,88,30.17,29.97,16,3,20,0.00
2014-10-6,28.5,23.9,17.7,24.1,21.0,15.0,93,89,80,30.72,30.17,18,2,18,0.00
2014-10-7,21.8,18.6,14.9,19.1,16.3,12.8,92,90,88,30.76,30.70,5,0,5,0.00
2014-10-8,23.6,19.6,17.1,19.0,16.5,14.5,92,87,74,30.70,30.51,7,0,7,0.00
2014-10-9,38.3,23.6,19.7,29.4,16.1,12.7,80,73,65,30.43,29.75,23,6,24,0.00
2014-10-10,30.2,28.1,25.7,25.4,22.0,18.5,84,78,72,29.75,29.53,25,5,25,0.00
2014-10-11,38.2,31.2,26.2,28.7,24.7,20.7,84,77,65,29.84,29.63,18,2,18,0.14
2014-10-12,32.1,29.6,25.2,29.5,26.5,23.2,93,88,77,30.13,29.84,10,0,10,0.02
2014-10-13,33.7,28.5,23.5,28.6,24.9,21.5,93,86,78,30.23,30.13,12,1,12,0.01
2014-10-14,33.3,28.3,22.0,25.7,22.2,15.3,91,78,63,30.23,30.20,10,1,11,0.00
2014-10-15,28.7,24.8,21.0,21.0,17.8,15.3,81,74,69,30.20,30.04,14,3,14,0.00
2014-10-16,33.9,27.0,22.7,24.7,21.4,19.3,89,79,68,30.05,30.00,7,1,8,0.02
2014-10-17,36.1,28.0,22.9,26.2,22.1,19.4,89,79,66,30.06,29.97,10,1,10,0.03
2014-10-18,39.3,30.1,23.4,26.7,22.5,18.8,85,74,59,29.97,29.84,15,3,15,0.05
2014-10-19,33.0,28.5,24.3,24.5,21.7,18.7,82,75,68,29.88,29.69,13,2,15,0.00
2014-10-20,35.2,30.6,28.8,26.0,23.2,21.7,79,74,67,29.71,29.57,25,6,25,0.00
2014-10-21,32.5,28.6,24.5,26.1,22.7,19.1,84,78,73,29.96,29.71,14,1,15,0.00
2014-10-22,31.7,24.4,19.7,23.2,19.0,15.7,92,80,68,30.20,29.95,11,1,11,0.00
2014-10-23,21.4,19.3,16.8,17.8,15.9,13.3,91,87,82,30.32,30.20,7,0,7,0.00
2014-10-24,24.4,21.2,19.5,21.0,18.9,17.1,93,90,84,30.46,30.28,4,0,4,0.00
2014-10-25,22.2,20.8,19.7,20.1,19.0,18.0,93,92,91,30.48,30.36,5,0,5,0.00
2014-10-26,19.9,14.9,10.2,17.7,12.0,7.9,91,88,81,30.53,30.34,4,1,8,0.00
2014-10-27,23.6,20.5,14.8,17.5,13.3,10.9,86,73,61,30.49,30.27,5,1,9,0.00
2014-10-28,26.2,19.7,12.8,16.0,10.9,6.6,78,68,59,30.27,30.08,5,1,7,0.00
2014-10-29,12.8,9.6,7.1,7.0,5.0,2.8,88,81,76,30.32,30.07,7,0,7,0.00
2014-10-30,12.1,9.2,6.1,8.1,6.1,3.1,89,87,83,30.33,30.08,5,0,5,0.00
2014-10-31,19.0,14.6,6.2,11.0,8.0,3.0,89,75,66,30.08,29.87,20,4,20,0.00
2014-11-1,22.2,17.5,14.4,11.7,8.6,6.5,77,67,60,29.90,29.83,19,5,19,0.00
2014-11-2,19.4,16.9,12.9,11.2,8.5,5.2,79,69,65,30.09,29.88,19,4,19,0.00
2014-11-3,21.7,14.8,7.8,10.8,7.0,2.7,80,71,60,30.24,30.09,7,1,7,0.00
2014-11-4,10.3,4.4,1.5,3.7,0.2,-2.2,89,82,73,30.36,30.23,5,1,5,0.00
2014-11-5,18.6,10.5,1.4,12.8,6.3,-2.3,97,83,75,30.36,30.18,10,1,10,0.00
2014-11-6,22.6,17.0,12.6,11.4,9.0,6.9,89,71,59,30.28,30.17,18,4,18,0.00
2014-11-7,25.5,22.3,17.9,13.4,11.2,8.8,68,62,56,30.33,30.20,6,4,13,0.00
2014-11-8,29.5,25.7,21.3,17.0,14.5,11.8,71,62,56,30.31,30.18,3,1,8,0.00
2014-11-9,37.3,32.6,22.4,24.3,21.2,15.1,76,63,57,30.34,30.24,10,5,17,0.00
2014-11-10,40.2,35.8,30.4,25.8,23.9,22.5,72,62,55,30.61,30.27,9,3,21,0.00
2014-11-11,40.6,36.3,28.5,27.1,24.5,21.9,77,62,53,30.63,30.42,15,4,15,0.02
2014-11-12,41.3,35.6,28.6,28.0,24.9,21.5,75,65,56,30.59,30.42,9,2,11,0.01
2014-11-13,33.7,29.7,27.0,25.1,22.6,20.0,81,74,65,30.59,30.55,4,0,6,0.00
2014-11-14,31.9,25.7,19.4,24.7,20.4,15.5,89,80,72,30.72,30.57,4,0,7,0.00
2014-11-15,27.6,22.4,19.3,20.3,17.4,14.8,86,81,69,30.76,30.66,4,0,4,0.00
2014-11-16,26.0,21.0,16.8,16.7,13.6,10.5,87,73,56,30.69,30.57,6,1,7,0.00
2014-11-17,27.4,24.8,21.8,21.0,15.5,11.3,84,68,51,30.64,30.48,4,1,7,0.00
2014-11-18,32.3,27.5,23.3,24.2,21.6,18.6,88,78,64,30.49,29.81,7,0,7,0.00
2014-11-19,38.4,33.1,29.3,24.5,22.5,19.5,75,65,49,30.16,29.84,9,1,10,0.00
2014-11-20,33.4,28.4,23.8,20.0,17.8,15.6,77,64,51,30.14,29.82,16,4,16,0.00
2014-11-21,28.3,20.0,11.4,16.1,7.8,-4.2,63,58,47,29.82,29.72,25,8,26,0.00
2014-11-22,11.8,6.6,1.2,-3.7,-6.9,-8.6,69,53,45,30.02,29.76,25,4,25,0.00
2014-11-23,11.9,8.1,2.2,5.1,0.3,-6.1,75,70,65,30.22,30.01,6,0,6,0.00
2014-11-24,15.7,11.5,8.7,10.5,6.2,2.6,83,79,73,30.47,30.22,8,0,8,0.00
2014-11-25,14.9,11.5,10.1,10.7,8.4,6.8,89,87,82,30.93,30.47,8,1,8,0.00
2014-11-26,10.6,6.9,3.5,7.1,3.3,-0.2,96,85,78,31.06,30.94,9,2,9,0.00
2014-11-27,15.1,10.5,6.2,6.3,2.9,-2.7,92,72,50,31.00,30.72,9,2,9,0.00
2014-11-28,6.5,4.0,1.4,1.9,-1.3,-3.7,83,78,69,30.74,30.71,6,0,7,0.00
2014-11-29,13.3,9.0,6.5,9.6,5.5,1.9,88,85,80,30.73,30.65,6,0,6,0.00
2014-11-30,16.4,10.8,7.3,14.2,8.0,4.3,91,88,86,30.69,30.46,3,0,3,0.00
2014-12-1,17.9,14.8,9.9,15.0,12.3,6.8,91,89,87,30.46,30.08,7,0,7,0.00
2014-12-2,20.7,19.3,17.9,18.5,16.9,15.0,96,91,87,30.12,29.92,6,0,6,0.00
2014-12-3,23.2,19.9,11.9,23.0,17.9,9.1,100,91,88,30.42,30.12,2,0,2,0.00
2014-12-4,14.0,12.1,9.9,12.0,9.7,6.9,99,90,87,30.45,30.39,0,0,0,0.00
2014-12-5,14.3,12.4,10.6,11.6,9.4,7.3,90,87,84,30.40,30.26,5,0,5,0.00
2014-12-6,12.6,8.2,3.0,9.5,4.4,-1.2,92,84,80,30.26,30.18,4,1,4,0.00
2014-12-7,20.6,12.3,3.8,15.7,8.3,0.1,92,84,79,30.26,29.86,8,1,9,0.00
2014-12-8,21.6,16.2,12.8,19.1,12.5,8.4,92,85,75,29.85,29.54,20,2,21,0.00
2014-12-9,15.0,9.2,6.8,9.4,2.3,-1.2,81,73,69,29.71,29.55,20,6,27,0.00
2014-12-10,9.9,8.6,6.9,5.0,2.4,-0.4,82,75,69,29.80,29.71,12,2,15,0.00
2014-12-11,10.5,9.6,8.3,5.1,3.8,2.1,81,77,72,29.88,29.79,8,0,8,0.00
2014-12-12,10.2,8.7,6.8,6.9,5.0,3.4,87,85,78,30.18,29.88,3,0,3,0.00
2014-12-13,11.9,7.9,5.6,9.0,4.8,2.1,89,87,85,30.38,30.18,4,1,6,0.00
2014-12-14,28.4,22.1,11.3,18.9,16.0,7.9,89,78,63,30.32,29.75,7,1,7,0.00
2014-12-15,34.4,31.5,24.1,24.8,22.3,17.7,76,69,65,29.75,29.64,10,2,11,0.00
2014-12-16,34.6,28.3,11.8,24.0,21.1,7.8,88,75,63,29.83,29.56,9,1,10,0.00
2014-12-17,18.7,12.1,6.7,16.8,9.2,3.2,92,88,82,30.21,29.83,5,0,5,0.00
2014-12-18,18.9,14.1,9.4,18.5,11.7,6.8,100,90,88,30.22,29.94,4,0,4,0.00
2014-12-19,15.9,11.9,7.7,12.5,9.1,4.6,90,88,84,29.94,29.74,5,0,5,0.00
2014-12-20,22.1,12.9,10.7,15.6,9.2,6.8,88,85,77,29.75,29.57,11,1,11,0.00
2014-12-21,25.7,12.7,-2.1,18.2,8.1,-6.4,89,82,71,30.09,29.57,11,1,11,0.00
2014-12-22,1.4,-1.3,-3.4,-2.0,-5.1,-7.7,86,83,81,30.51,30.09,5,0,5,0.00
2014-12-23,2.4,-1.0,-3.2,-0.8,-4.7,-7.7,86,84,80,30.52,30.29,3,0,5,0.00
2014-12-24,14.4,7.1,-0.5,12.0,4.2,-4.2,90,88,84,30.30,30.14,3,0,3,0.00
2014-12-25,27.8,18.9,14.2,19.4,15.0,11.3,91,85,68,30.18,30.00,9,1,9,0.00
2014-12-26,19.3,17.5,13.7,17.1,15.1,11.1,92,90,89,30.66,30.19,9,1,9,0.00
2014-12-27,17.1,5.0,-0.4,14.9,1.3,-3.8,95,84,61,31.16,30.66,12,2,14,0.00
2014-12-28,25.7,20.8,12.7,11.8,6.6,1.9,66,54,43,31.15,30.76,17,3,17,0.00
2014-12-29,36.8,30.8,24.3,17.3,14.8,11.6,69,52,42,30.77,30.57,12,2,13,0.00
2014-12-30,39.5,36.4,33.1,28.4,23.8,17.2,77,60,47,30.58,30.33,12,3,12,0.15
2014-12-31,36.7,30.3,26.8,32.8,28.1,25.3,96,92,76,30.76,30.38,21,1,21,0.03
2015-1-1,27.5,19.5,14.0,26.2,16.2,5.7,95,87,69,30.83,30.67,15,2,16,0.00
2015-1-2,17.7,15.1,11.4,7.9,-2.9,-8.2,76,45,34,31.02,30.83,23,7,23,0.00